Temp
59 60 60 59 59 59 60 59 60 61 61 63 62 62 62 63 64 64 62 63 66 68 69 70 71 71 71 71 71 70 69 70 69 70 70 69 69 69 70 70 70 70 70
59 59 58 58 58 58 59 59 59 59 60 60 60 61 63 65 64 64 63 58 63 65 66 68 68 69 70 71 70 69 69 68 68 69 69 68 68 68 69 69 69 69 70
59 58 57 56 56 57 58 58 58 59 57 60 61 63 62 64 64 62 59 58 57 61 63 65 66 67 68 69 70 69 68 67 68 68 68 68 67 67 68 68 68 68 68
60 58 56 55 56 55 55 54 55 55 55 55 56 58 58 61 61 59 59 58 57 57 59 62 62 64 65 66 67 67 66 66 66 66 67 67 66 66 67 67 67 67 67
60 57 55 55 56 54 53 54 53 54 53 53 56 55 56 57 58 62 58 57 56 56 53 60 60 60 62 63 64 65 65 65 65 65 65 66 65 65 66 67 66 66 66
58 56 55 55 54 52 51 51 51 53 53 53 60 57 55 56 56 55 55 59 56 56 54 55 51 53 60 60 61 62 63 64 64 64 64 65 65 65 65 65 66 65 65
57 55 54 53 52 51 50 51 50 51 50 51 51 52 53 55 55 54 55 54 55 55 54 53 51 50 52 60 58 59 60 62 63 63 63 63 64 64 64 64 64 65 65
56 57 53 52 52 50 50 49 48 47 49 49 46 46 46 50 53 55 53 55 52 53 54 54 52 51 50 49 51 57 58 59 61 62 62 62 63 64 64 63 63 63 63
56 55 53 52 50 49 47 48 47 47 44 47 48 45 42 42 45 50 51 51 52 50 50 52 52 52 51 49 53 54 55 56 58 60 61 62 62 63 63 63 62 62 62
55 55 54 52 50 49 48 47 50 46 45 43 46 52 47 45 41 41 48 49 51 52 50 49 50 51 51 49 53 53 54 54 57 59 60 61 61 62 62 61 61 60 60
54 54 53 51 50 49 48 48 47 46 46 44 44 44 45 45 44 41 39 43 48 50 49 49 49 48 51 49 48 50 54 54 56 57 59 60 61 61 60 60 60 59 59
52 53 54 51 50 49 48 47 47 46 45 45 45 44 44 43 43 41 39 40 42 46 48 48 48 47 48 47 52 55 53 54 55 57 58 59 60 60 59 58 58 58 58
51 51 51 50 49 50 50 49 47 45 45 43 44 44 45 44 45 44 42 39 39 42 46 46 47 47 51 47 47 52 53 54 55 56 58 59 58 58 57 57 57 57 57
51 53 52 51 51 51 50 49 46 45 45 44 43 43 44 44 45 44 42 39 36 38 41 44 46 46 46 46 48 53 46 54 54 55 56 56 56 55 55 55 56 56 56
54 52 51 51 50 50 50 49 46 45 45 44 43 43 43 44 44 43 43 42 38 33 35 41 42 45 45 45 47 46 43 49 53 54 54 53 53 53 53 53 53 54 54
52 52 51 51 50 50 50 49 46 46 45 44 45 43 43 43 43 42 42 42 40 41 37 41 42 44 45 50 48 46 45 49 52 53 54 53 52 52 52 52 52 53 53
52 52 52 51 51 50 50 48 47 47 46 45 45 44 44 44 43 42 41 41 41 40 38 43 44 47 43 43 46 44 45 45 44 51 52 53 52 51 51 51 51 52 52
51 51 51 50 50 50 49 47 47 47 46 45 45 44 44 49 43 43 42 41 41 42 40 39 43 42 42 45 43 41 46 49 45 48 51 52 52 52 51 51 51 51 51
49 49 49 48 49 49 48 47 47 46 46 45 45 44 44 44 42 42 42 42 42 45 42 40 40 43 43 39 41 41 41 43 46 48 51 52 52 52 52 51 50 50 50
47 47 47 47 47 48 48 47 47 44 43 45 45 44 44 44 43 43 43 42 43 40 41 40 40 41 41 41 41 41 39 40 41 47 49 49 49 50 51 51 50 49 49
47 47 46 46 46 47 49 45 44 42 41 41 42 45 45 45 47 48 47 44 41 41 40 38 39 40 40 39 37 41 40 42 40 41 40 42 43 44 44 48 47 48 48
45 45 44 45 44 48 50 50 47 41 41 41 41 43 43 45 45 49 50 49 47 41 39 37 38 38 41 43 44 42 41 40 36 39 39 39 41 39 42 42 45 47 47
43 42 42 43 42 42 49 50 49 42 40 40 40 41 42 47 45 43 45 47 47 48 47 43 40 41 40 41 42 42 41 40 40 43 40 37 37 38 40 44 46 47 48
41 41 41 41 40 43 48 48 48 41 39 39 40 40 40 41 40 43 42 40 39 39 41 42 41 42 44 45 43 43 42 42 41 43 43 35 34 37 36 39 47 48 48
39 39 41 39 38 39 46 47 46 39 38 37 40 41 40 39 44 46 42 36 38 42 46 46 46 46 46 46 46 44 39 36 33 34 39 38 35 35 33 34 37 47 47
40 40 40 39 41 40 44 47 47 41 35 38 37 40 43 43 45 45 42 39 36 38 40 40 41 42 44 43 45 42 41 36 34 33 37 35 36 33 30 31 34 35 38
MSLP
1019.51 1019.38 1019.37 1019.45 1019.52 1019.41 1019.37 1019.35 1019.17 1018.98 1018.79 1018.83 1018.99 1019.03 1019.06 1018.96 1019.15 1019.39 1019.65 1019.62 1019.41 1019.01 1018.81 1018.66 1018.43 1018.31 1018.20 1018.06 1018.07 1018.16 1018.11 1017.94 1017.83 1017.72 1017.56 1017.59 1017.57 1017.40 1017.27 1017.19 1017.10 1016.94 1016.67
1019.69 1019.72 1019.79 1019.81 1019.85 1019.72 1019.58 1019.44 1019.34 1019.13 1019.25 1019.36 1019.43 1019.43 1019.40 1019.31 1019.35 1019.44 1019.62 1019.83 1019.76 1019.60 1019.40 1019.19 1018.97 1018.86 1018.58 1018.31 1018.36 1018.47 1018.48 1018.36 1018.19 1017.99 1017.92 1017.89 1017.81 1017.82 1017.59 1017.42 1017.27 1017.07 1016.78
1019.77 1019.82 1019.99 1020.24 1020.16 1019.96 1019.80 1019.65 1019.49 1019.31 1019.46 1019.52 1019.76 1019.57 1019.57 1019.39 1019.38 1019.41 1019.63 1019.79 1020.02 1020.02 1019.97 1019.73 1019.53 1019.36 1019.12 1018.84 1018.67 1018.65 1018.76 1018.71 1018.53 1018.34 1018.18 1018.17 1018.09 1018.02 1017.82 1017.58 1017.53 1017.28 1016.97
1019.92 1019.92 1020.16 1020.40 1020.24 1020.19 1020.09 1020.16 1020.03 1019.90 1019.77 1019.94 1019.92 1019.74 1019.64 1019.48 1019.49 1019.64 1019.74 1019.85 1020.02 1020.21 1020.21 1020.21 1020.08 1019.85 1019.57 1019.33 1019.14 1019.08 1019.11 1019.07 1018.92 1018.74 1018.59 1018.48 1018.52 1018.31 1018.00 1017.78 1017.67 1017.43 1017.15
1020.09 1020.08 1020.37 1020.53 1020.40 1020.40 1020.38 1020.40 1020.31 1020.25 1020.18 1020.17 1020.18 1020.07 1019.90 1019.85 1019.62 1019.62 1019.92 1020.10 1020.21 1020.31 1020.51 1020.42 1020.38 1020.25 1020.03 1019.84 1019.61 1019.40 1019.24 1019.14 1019.11 1019.02 1018.86 1018.66 1018.64 1018.58 1018.30 1017.97 1017.86 1017.66 1017.39
1020.31 1020.30 1020.45 1020.57 1020.63 1020.73 1020.78 1020.70 1020.69 1020.55 1020.45 1020.46 1020.30 1020.14 1019.98 1019.82 1019.66 1019.86 1020.02 1020.00 1020.24 1020.31 1020.37 1020.35 1020.46 1020.37 1020.10 1020.00 1019.89 1019.72 1019.53 1019.36 1019.20 1019.08 1018.93 1018.75 1018.62 1018.59 1018.46 1018.30 1018.02 1017.87 1017.69
1020.45 1020.49 1020.62 1020.77 1020.89 1021.01 1020.98 1020.97 1021.04 1020.98 1021.01 1020.77 1020.76 1020.25 1019.98 1019.64 1019.69 1019.77 1019.80 1020.00 1020.10 1020.11 1020.18 1020.22 1020.22 1020.21 1020.17 1019.94 1019.99 1019.87 1019.64 1019.48 1019.28 1019.09 1018.93 1018.74 1018.50 1018.36 1018.27 1018.19 1018.12 1017.96 1017.75
1020.53 1020.57 1020.82 1021.04 1021.11 1021.19 1021.18 1021.27 1021.42 1021.59 1021.29 1021.09 1021.32 1021.09 1020.57 1020.27 1019.97 1019.61 1019.68 1019.80 1019.89 1019.85 1019.95 1019.96 1020.06 1020.08 1020.07 1020.13 1020.13 1020.06 1019.99 1019.74 1019.46 1019.22 1019.05 1018.87 1018.67 1018.42 1018.24 1018.17 1018.12 1018.00 1017.78
1020.59 1020.74 1020.94 1021.18 1021.29 1021.30 1021.41 1021.45 1021.54 1021.77 1021.92 1021.46 1021.23 1021.58 1021.40 1021.29 1020.69 1019.77 1019.64 1019.59 1019.62 1019.65 1019.68 1019.68 1019.73 1019.81 1019.84 1019.83 1019.78 1019.82 1019.90 1019.84 1019.53 1019.27 1019.06 1018.80 1018.59 1018.38 1018.28 1018.24 1018.23 1018.15 1017.92
1020.55 1020.72 1021.01 1021.20 1021.33 1021.38 1021.49 1021.43 1021.45 1021.75 1021.89 1021.93 1021.48 1021.25 1021.42 1021.61 1021.53 1020.97 1019.99 1019.64 1019.32 1019.37 1019.40 1019.39 1019.33 1019.38 1019.40 1019.53 1019.62 1019.71 1019.76 1019.87 1019.64 1019.33 1019.09 1018.83 1018.57 1018.30 1018.15 1018.18 1018.19 1018.21 1018.16
1020.48 1020.67 1020.95 1021.16 1021.29 1021.31 1021.34 1021.44 1021.63 1021.75 1021.81 1021.88 1021.87 1021.65 1021.47 1021.39 1021.42 1021.68 1021.19 1020.33 1019.80 1019.28 1018.99 1018.92 1018.86 1018.97 1018.95 1019.07 1019.25 1019.36 1019.40 1019.48 1019.39 1019.22 1018.98 1018.69 1018.41 1018.20 1018.11 1018.18 1018.16 1018.08 1018.02
1020.37 1020.47 1020.70 1020.99 1021.12 1021.14 1021.31 1021.44 1021.55 1021.65 1021.68 1021.63 1021.66 1021.62 1021.70 1021.80 1021.62 1021.65 1021.53 1020.78 1020.30 1019.40 1018.80 1018.65 1018.54 1018.52 1018.54 1018.66 1018.67 1018.70 1018.98 1019.00 1018.97 1018.91 1018.71 1018.43 1018.18 1018.01 1017.95 1018.00 1017.99 1017.89 1017.87
1020.19 1020.29 1020.43 1020.82 1020.92 1020.93 1021.02 1021.13 1021.35 1021.41 1021.39 1021.46 1021.43 1021.42 1021.19 1021.21 1021.21 1021.25 1021.34 1020.98 1020.69 1019.68 1018.87 1018.21 1018.07 1017.91 1017.82 1018.04 1018.22 1018.30 1018.49 1018.56 1018.59 1018.43 1018.15 1017.94 1017.84 1017.83 1017.88 1017.83 1017.74 1017.67 1017.48
1020.00 1019.96 1020.16 1020.41 1020.41 1020.50 1020.68 1020.86 1021.14 1021.10 1021.04 1021.09 1021.08 1021.03 1020.91 1020.79 1020.84 1020.89 1021.04 1021.11 1020.72 1020.02 1019.13 1018.30 1017.59 1017.26 1017.18 1017.28 1017.44 1017.65 1017.96 1017.92 1017.96 1017.89 1017.73 1017.65 1017.63 1017.62 1017.66 1017.56 1017.43 1017.37 1017.32
1019.88 1019.99 1020.14 1020.21 1020.21 1020.29 1020.38 1020.54 1020.75 1020.74 1020.75 1020.80 1020.75 1020.66 1020.65 1020.47 1020.43 1020.36 1020.36 1020.51 1020.74 1020.38 1019.18 1017.84 1017.62 1016.78 1016.75 1016.72 1016.78 1016.97 1017.32 1017.43 1017.43 1017.38 1017.28 1017.24 1017.20 1017.30 1017.24 1017.14 1017.03 1016.91 1016.96
1019.73 1019.93 1020.04 1020.02 1020.04 1020.00 1020.02 1020.17 1020.27 1020.31 1020.36 1020.31 1020.28 1020.21 1020.08 1019.99 1019.84 1019.76 1019.72 1019.71 1019.85 1019.73 1019.03 1017.90 1017.28 1016.83 1016.49 1016.16 1016.14 1016.27 1016.43 1016.64 1016.70 1016.70 1016.62 1016.64 1016.61 1016.53 1016.55 1016.51 1016.44 1016.35 1016.32
1019.77 1019.81 1019.88 1019.93 1019.98 1019.98 1019.91 1019.95 1019.93 1019.89 1019.87 1019.78 1019.75 1019.66 1019.39 1019.34 1019.19 1019.05 1018.98 1018.95 1019.01 1018.97 1018.39 1017.22 1017.00 1016.58 1016.27 1015.94 1015.71 1015.56 1015.60 1015.67 1015.81 1015.87 1015.88 1015.80 1015.78 1015.67 1015.71 1015.79 1015.74 1015.55 1015.53
1019.66 1019.74 1019.83 1019.88 1019.94 1019.92 1019.84 1019.80 1019.76 1019.66 1019.54 1019.41 1019.22 1019.13 1018.82 1018.68 1018.48 1018.31 1018.29 1018.29 1018.16 1017.96 1017.87 1016.72 1016.41 1016.08 1015.70 1015.32 1015.05 1014.95 1014.80 1014.60 1014.68 1014.70 1014.72 1014.78 1014.72 1014.75 1014.83 1014.93 1015.00 1014.86 1014.77
1019.89 1019.81 1019.82 1019.94 1019.97 1019.92 1019.89 1019.81 1019.72 1019.57 1019.37 1019.16 1018.91 1018.69 1018.35 1018.06 1017.88 1017.55 1017.37 1017.27 1017.05 1016.78 1016.72 1016.33 1015.17 1015.22 1014.86 1014.86 1014.55 1014.25 1013.96 1013.88 1013.58 1013.47 1013.44 1013.45 1013.52 1013.56 1013.66 1013.83 1013.98 1014.02 1013.97
1020.02 1019.99 1020.05 1020.06 1019.98 1019.84 1019.73 1019.57 1019.45 1019.28 1019.10 1018.92 1018.65 1018.27 1017.81 1017.47 1017.16 1016.86 1016.62 1016.44 1016.20 1016.06 1015.85 1015.44 1014.64 1014.22 1014.22 1013.97 1013.90 1013.80 1013.25 1013.08 1012.63 1012.53 1012.45 1012.51 1012.60 1012.57 1012.54 1012.63 1012.87 1013.06 1013.17
1020.13 1020.12 1020.05 1019.93 1019.80 1019.62 1019.41 1019.26 1019.20 1019.07 1018.91 1018.63 1018.25 1017.80 1017.28 1016.79 1016.38 1016.04 1015.77 1015.60 1015.67 1015.46 1015.21 1014.95 1014.22 1013.62 1013.25 1013.31 1013.25 1012.97 1012.49 1012.36 1011.75 1011.99 1011.91 1011.65 1011.69 1011.62 1011.61 1011.62 1011.79 1012.01 1012.18
1020.15 1020.12 1020.02 1019.90 1019.66 1019.40 1019.18 1018.94 1018.82 1018.76 1018.61 1018.41 1018.01 1017.41 1016.87 1016.34 1015.82 1015.44 1015.13 1014.91 1014.87 1014.64 1014.47 1014.43 1013.73 1013.08 1012.41 1012.08 1011.85 1011.67 1011.48 1011.33 1010.77 1011.19 1010.98 1010.34 1010.65 1010.71 1010.72 1010.77 1010.91 1010.98 1011.15
1020.16 1020.18 1020.04 1019.81 1019.51 1019.19 1018.92 1018.66 1018.49 1018.38 1018.34 1018.07 1017.62 1017.05 1016.41 1015.87 1015.43 1015.03 1014.63 1014.28 1014.11 1014.02 1013.70 1013.37 1012.73 1012.21 1011.76 1011.72 1011.52 1010.84 1010.49 1010.23 1009.51 1009.46 1009.99 1009.71 1009.91 1009.78 1009.62 1009.60 1009.76 1010.00 1010.14
1020.28 1020.09 1019.84 1019.59 1019.37 1018.98 1018.60 1018.28 1018.01 1017.86 1017.78 1017.51 1017.14 1016.63 1016.04 1015.49 1014.98 1014.58 1014.20 1013.91 1013.64 1013.37 1012.97 1012.66 1012.30 1011.47 1011.18 1010.67 1010.53 1010.23 1009.75 1009.20 1008.93 1008.90 1009.06 1008.69 1009.00 1008.52 1008.66 1008.73 1008.73 1008.86 1009.10
1020.16 1019.95 1019.69 1019.43 1019.13 1018.71 1018.27 1017.87 1017.49 1017.23 1017.06 1016.76 1016.47 1016.05 1015.61 1015.13 1014.73 1014.26 1013.66 1013.27 1013.03 1012.54 1012.16 1011.79 1011.34 1010.84 1010.31 1009.84 1009.42 1009.07 1008.48 1008.40 1007.76 1007.63 1007.71 1007.93 1007.92 1007.97 1008.05 1008.06 1008.07 1007.87 1008.16
1019.98 1019.67 1019.41 1019.12 1018.76 1018.33 1017.83 1017.38 1017.04 1016.69 1016.45 1015.97 1015.69 1015.25 1015.08 1014.76 1014.15 1013.83 1013.50 1013.17 1012.58 1011.96 1011.58 1010.99 1010.54 1009.93 1009.51 1008.92 1008.44 1008.18 1007.52 1007.25 1007.05 1006.72 1006.56 1006.93 1006.97 1007.52 1007.61 1007.20 1007.08 1007.44 1007.48
Wind_Speed
3 4 3 4 4 4 3 4 4 4 4 6 7 7 6 6 5 3 2 11 11 12 10 10 11 9 7 11 13 12 13 12 13 13 13 12 13 14 13 11 13 15 16
3 4 4 4 4 4 4 3 3 3 5 5 6 6 5 3 4 5 2 4 9 11 11 11 11 11 10 7 8 10 11 10 9 11 10 12 13 12 13 12 12 12 14
3 3 3 4 3 4 6 5 5 4 5 4 4 2 2 2 4 5 3 3 4 9 10 11 11 11 11 10 9 9 10 11 9 8 10 10 13 8 11 10 11 13 15
4 4 4 3 3 3 3 4 3 4 4 3 0 0 3 1 3 4 3 3 3 3 6 8 9 10 10 10 9 9 9 9 10 10 9 9 10 10 8 10 10 11 13
5 4 4 3 3 3 3 3 3 3 2 0 1 1 3 2 2 3 4 4 2 3 2 3 5 7 8 9 9 8 7 7 8 8 9 9 8 10 10 9 12 11 12
4 4 3 3 4 3 4 4 3 3 2 2 3 2 3 3 1 0 2 2 3 1 2 1 2 1 4 4 5 5 6 6 6 7 7 7 7 7 9 11 10 11 12
3 3 3 3 4 2 2 3 3 2 3 4 3 4 4 5 4 4 3 2 3 3 1 0 1 1 2 3 3 2 3 4 5 5 5 6 5 5 5 7 9 11 10
3 2 3 2 3 3 4 4 4 3 2 2 1 2 3 3 2 5 4 4 4 3 3 3 2 2 2 1 2 0 4 5 6 6 7 7 7 7 5 6 7 8 9
3 1 1 2 2 2 2 1 2 3 1 2 2 2 3 2 3 1 5 4 5 4 4 5 5 5 4 3 4 4 1 4 5 6 7 7 7 7 6 7 8 8 9
3 3 1 1 1 1 2 1 2 0 1 2 3 1 2 3 1 5 3 4 5 5 5 4 5 6 6 4 5 6 4 4 7 7 8 8 8 8 6 7 7 8 9
4 3 3 3 3 2 2 1 2 2 1 1 1 1 1 2 4 3 4 4 3 4 5 5 5 5 6 6 5 6 10 8 8 8 9 9 9 9 7 8 9 8 8
4 5 5 4 4 3 3 3 4 4 4 3 2 2 2 2 2 3 3 4 5 5 3 5 5 5 5 5 7 8 11 10 10 11 11 11 11 10 9 8 9 10 8
1 4 5 5 4 4 4 4 4 4 4 3 5 4 3 4 3 3 2 4 4 4 4 4 5 5 6 5 6 10 14 14 14 14 14 13 12 12 11 12 11 11 10
2 1 1 3 4 4 4 4 3 4 5 5 7 6 4 4 3 3 4 2 5 4 3 7 4 5 5 5 7 12 7 16 16 17 16 15 14 13 14 14 14 12 12
2 2 3 3 4 4 5 5 4 5 5 5 6 6 5 4 5 5 4 4 5 4 5 4 4 4 5 5 7 6 7 13 18 19 18 17 16 16 16 16 15 15 14
3 4 4 4 5 5 6 5 5 5 6 5 5 6 6 4 6 5 5 5 5 8 9 4 4 4 5 5 8 8 9 14 18 20 20 20 19 19 19 18 17 16 16
3 3 3 3 4 4 5 4 6 7 7 7 6 7 8 7 6 5 5 5 7 6 12 11 7 9 5 7 6 6 8 9 8 21 23 23 22 21 20 20 20 18 18
3 2 2 3 4 5 4 5 6 6 7 7 7 7 9 6 8 7 6 8 9 9 10 18 11 8 9 8 8 8 9 9 9 18 23 23 23 22 22 21 21 20 19
3 4 4 4 5 5 5 6 6 6 7 7 7 7 8 7 7 5 7 8 8 9 10 11 14 9 9 4 8 7 8 10 9 15 23 24 24 24 23 23 23 22 21
4 4 4 5 6 5 5 6 5 5 6 7 7 8 8 8 9 8 8 7 7 7 9 10 13 12 9 7 7 9 10 8 11 10 16 18 19 21 25 25 24 21 20
4 4 5 5 6 5 4 4 5 6 7 8 8 9 10 9 13 14 10 9 7 9 9 8 10 11 10 8 8 9 11 10 10 9 9 10 10 9 10 19 16 19 21
4 4 5 6 6 4 8 11 7 5 6 8 10 10 8 11 11 17 18 17 14 11 12 10 11 14 15 12 11 11 12 12 14 7 11 12 9 9 9 8 17 20 21
4 5 6 6 7 7 11 13 13 4 6 8 9 9 8 8 10 9 13 16 14 16 18 14 16 18 18 14 14 14 13 14 15 9 8 10 6 10 9 10 20 20 19
5 5 6 6 6 7 14 16 15 6 6 7 9 9 9 10 8 11 11 10 8 6 10 10 13 15 15 14 14 15 17 16 13 12 9 14 6 10 6 7 21 21 20
5 5 5 7 7 7 14 16 16 6 6 8 8 9 8 8 15 20 12 8 11 15 16 22 23 23 25 26 24 14 14 12 12 10 10 11 8 8 5 6 7 23 21
6 5 6 7 11 9 14 16 14 6 6 7 7 9 14 16 21 21 14 12 14 16 16 16 14 17 19 19 25 18 13 14 13 10 9 10 12 6 4 4 6 5 5
Wind_Direction
32 23 49 27 31 8 15 4 18 358 17 18 51 31 37 51 63 85 81 51 40 43 39 37 42 33 32 48 52 47 33 27 30 36 46 50 44 33 32 27 22 17 12
27 49 23 31 24 16 346 13 358 325 47 55 42 33 29 53 89 101 91 73 66 53 48 46 48 41 35 31 38 40 34 25 30 35 43 40 46 22 25 34 26 17 12
34 41 72 39 3 9 358 9 359 347 70 55 55 31 322 287 178 138 170 142 89 70 48 40 39 38 36 32 36 43 39 28 21 9 20 29 22 14 6 22 7 12 21
24 53 70 53 4 12 26 359 8 353 90 84 278 302 294 5 51 91 90 78 79 103 66 50 38 38 37 36 38 37 35 28 20 18 15 18 22 10 2 23 23 23 24
14 72 53 23 7 22 24 358 1 358 60 171 206 340 306 317 112 101 98 90 89 48 119 86 75 60 41 36 30 29 30 31 25 18 11 11 23 14 5 12 18 10 10
34 37 67 50 6 29 21 8 10 339 13 353 299 217 230 268 129 33 147 155 130 46 72 104 171 170 101 70 42 29 20 17 17 17 11 9 6 11 7 4 352 8 11
47 37 46 40 8 38 31 17 345 356 345 359 337 294 240 224 189 186 185 211 178 176 160 97 292 117 209 154 121 33 12 359 357 4 0 354 351 346 347 352 2 343 336
61 88 40 27 26 9 28 28 27 345 319 46 25 290 323 350 298 210 190 200 201 179 225 216 244 291 300 113 190 232 338 342 338 342 342 340 334 326 329 335 344 343 339
127 64 24 10 17 30 33 26 42 17 338 319 98 144 353 305 316 342 222 208 208 204 229 219 210 229 233 245 228 202 184 319 316 321 323 323 322 315 318 328 328 334 336
172 162 282 280 305 16 339 315 92 299 46 296 330 215 188 177 273 323 315 249 220 213 225 224 212 221 214 221 240 202 223 282 299 309 311 309 310 308 311 317 312 319 328
185 191 208 245 241 229 243 214 304 281 260 219 229 327 318 261 223 197 283 306 339 259 235 217 212 215 220 207 215 218 215 235 268 283 291 292 295 299 302 308 305 302 312
193 199 203 217 239 234 230 228 234 242 257 264 261 261 214 231 278 236 266 268 249 278 247 236 225 221 222 211 213 209 209 228 250 265 276 281 283 284 285 281 290 289 296
225 220 199 210 223 230 226 223 240 246 250 240 240 243 236 234 228 235 240 270 261 285 274 247 226 217 216 209 212 209 216 236 249 257 264 272 277 279 280 278 275 283 278
262 296 226 221 236 246 237 224 231 240 240 249 250 247 253 252 245 225 219 219 297 269 288 245 254 221 207 203 205 214 214 229 242 252 259 266 270 271 271 270 271 269 273
258 256 264 266 265 255 244 234 234 247 248 247 249 246 243 246 246 241 232 206 192 282 281 265 254 242 219 202 210 192 201 228 243 254 249 254 260 262 262 262 263 263 262
233 232 238 244 250 249 247 242 245 248 248 250 246 244 240 239 245 237 230 228 212 240 264 241 260 255 238 222 218 199 211 220 240 250 255 255 256 258 255 257 257 257 255
324 329 325 327 313 298 286 270 260 251 248 251 247 248 248 229 244 235 228 229 235 230 257 269 258 263 247 236 240 219 216 219 230 244 253 256 255 253 253 255 254 252 253
355 338 331 319 299 296 299 297 291 288 280 277 267 259 264 254 244 237 230 235 235 235 247 266 262 257 246 248 231 225 228 225 221 232 244 249 250 251 250 252 253 250 249
-0 348 359 336 324 319 311 300 294 295 292 288 285 277 270 266 261 245 236 240 238 241 239 255 267 260 258 238 254 250 230 237 236 228 236 242 247 248 248 247 250 248 247
5 352 343 333 320 310 303 290 290 304 304 297 290 281 275 263 263 263 262 255 252 245 246 253 262 266 259 246 241 251 255 232 241 237 239 240 241 247 248 247 248 248 244
346 338 332 316 306 300 281 297 298 291 289 288 282 281 280 270 267 266 271 268 262 269 271 270 269 268 262 256 243 251 255 260 248 227 237 236 236 238 234 242 243 241 242
336 332 315 303 304 291 295 304 297 275 279 281 284 287 283 285 282 279 278 274 265 268 268 268 274 275 282 276 264 253 252 255 261 195 227 238 221 227 226 223 228 233 239
328 314 304 302 298 296 298 302 305 286 280 278 276 279 286 288 295 288 286 286 288 291 288 280 273 278 281 276 282 279 262 254 255 246 216 244 205 227 218 221 219 229 233
297 292 294 295 295 295 302 305 306 290 278 273 277 278 279 283 272 290 292 288 279 269 271 278 279 285 282 282 271 270 274 271 267 260 228 246 207 227 205 209 216 227 231
293 289 286 292 290 285 289 292 294 279 269 275 282 283 286 294 296 297 299 297 296 296 295 294 290 289 288 288 284 280 267 263 257 244 225 236 232 228 206 209 215 225 225
278 284 289 280 274 277 276 281 292 283 274 283 277 279 288 292 300 306 304 304 295 294 296 291 283 278 280 280 281 274 269 263 259 259 232 223 227 196 216 230 197 212 205